| time (UTC) | temp F | wind direction | speed MPH | gust MPH | rain 1hr in | rain 24hr in | rain mn in | humidity % | barometer mb |
| 20260508033414 | 61 | 205 | 0.0 | 0.0 | 0.00 | 0.00 | 0.00 | 22 | 1016.3 |
| 20260508032915 | 61 | 205 | 0.0 | 0.0 | 0.00 | 0.00 | 0.00 | 22 | 1016.2 |
| 20260508032415 | 60 | 205 | 0.0 | 1.0 | 0.00 | 0.00 | 0.00 | 24 | 1016.2 |
| 20260508031914 | 60 | 216 | 0.0 | 1.0 | 0.00 | 0.00 | 0.00 | 25 | 1016.0 |
| 20260508031414 | 61 | 239 | 0.0 | 0.0 | 0.00 | 0.00 | 0.00 | 26 | 1016.0 |
| 20260508030916 | 62 | 239 | 0.0 | 0.0 | 0.00 | 0.00 | 0.00 | 23 | 1015.9 |
| 20260508030414 | 63 | 239 | 0.0 | 0.0 | 0.00 | 0.00 | 0.00 | 23 | 1015.8 |
| 20260508025915 | 64 | 239 | 0.0 | 1.0 | 0.00 | 0.00 | 0.00 | 20 | 1015.6 |
| 20260508025414 | 64 | 239 | 0.0 | 1.0 | 0.00 | 0.00 | 0.00 | 20 | 1015.6 |
| 20260508024917 | 65 | 237 | 0.0 | 1.0 | 0.00 | 0.00 | 0.00 | 19 | 1015.5 |
| 20260508024911 | 65 | 237 | 0.0 | 0.0 | 0.00 | 0.00 | 0.00 | 20 | 1015.5 |
| 20260508023912 | 66 | 237 | 0.0 | 1.0 | 0.00 | 0.00 | 0.00 | 19 | 1015.5 |
| 20260508023412 | 66 | 237 | 0.0 | 1.0 | 0.00 | 0.00 | 0.00 | 18 | 1015.4 |
| 20260508022913 | 65 | 169 | 0.0 | 1.0 | 0.00 | 0.00 | 0.00 | 19 | 1015.4 |
| 20260508022412 | 66 | 169 | 0.0 | 1.0 | 0.00 | 0.00 | 0.00 | 18 | 1015.3 |
| 20260508021915 | 67 | 169 | 0.0 | 2.0 | 0.00 | 0.00 | 0.00 | 18 | 1015.1 |
| 20260508021909 | 66 | 169 | 0.0 | 0.0 | 0.00 | 0.00 | 0.00 | 18 | 1015.2 |
| 20260508020907 | 68 | 169 | 0.0 | 2.0 | 0.00 | 0.00 | 0.00 | 16 | 1015.1 |
| 20260508020408 | 69 | 153 | 0.0 | 2.0 | 0.00 | 0.00 | 0.00 | 15 | 1014.8 |
| 20260508015908 | 69 | 141 | 0.0 | 4.0 | 0.00 | 0.00 | 0.00 | 15 | 1014.9 |
| 20260508015414 | 70 | 195 | 1.0 | 4.0 | 0.00 | 0.00 | 0.00 | 15 | 1014.8 |
| 20260508014907 | 71 | 186 | 1.0 | 5.0 | 0.00 | 0.00 | 0.00 | 15 | 1014.8 |
| 20260508014409 | 71 | 179 | 2.0 | 6.0 | 0.00 | 0.00 | 0.00 | 14 | 1014.8 |
| 20260508013906 | 72 | 153 | 1.0 | 6.0 | 0.00 | 0.00 | 0.00 | 14 | 1014.7 |
| 20260508013405 | 72 | 210 | 1.0 | 5.0 | 0.00 | 0.00 | 0.00 | 14 | 1014.7 |
| 20260508012906 | 73 | 172 | 1.0 | 5.0 | 0.00 | 0.00 | 0.00 | 14 | 1014.7 |
| 20260508012405 | 73 | 200 | 1.0 | 4.0 | 0.00 | 0.00 | 0.00 | 15 | 1014.6 |
| 20260508011908 | 75 | 195 | 2.0 | 7.0 | 0.00 | 0.00 | 0.00 | 14 | 1014.5 |
| 20260508011903 | 74 | 146 | 2.0 | 5.0 | 0.00 | 0.00 | 0.00 | 13 | 1014.6 |
| 20260508010904 | 75 | 200 | 3.0 | 7.0 | 0.00 | 0.00 | 0.00 | 14 | 1014.5 |
| 20260508010405 | 75 | 198 | 3.0 | 7.0 | 0.00 | 0.00 | 0.00 | 13 | 1014.5 |
| 20260508005906 | 76 | 181 | 2.0 | 5.0 | 0.00 | 0.00 | 0.00 | 13 | 1014.6 |
| 20260508005404 | 76 | 164 | 1.0 | 4.0 | 0.00 | 0.00 | 0.00 | 14 | 1014.5 |
| 20260508004904 | 76 | 219 | 1.0 | 3.0 | 0.00 | 0.00 | 0.00 | 14 | 1014.5 |
| 20260508004410 | 75 | 141 | 3.0 | 7.0 | 0.00 | 0.00 | 0.00 | 13 | 1014.5 |
| 20260508004405 | 76 | 153 | 2.0 | 7.0 | 0.00 | 0.00 | 0.00 | 14 | 1014.5 |
| 20260508003407 | 75 | 160 | 2.0 | 6.0 | 0.00 | 0.00 | 0.00 | 14 | 1014.6 |
| 20260508003401 | 75 | 143 | 2.0 | 7.0 | 0.00 | 0.00 | 0.00 | 13 | 1014.5 |
| 20260508002407 | 76 | 159 | 2.0 | 5.0 | 0.00 | 0.00 | 0.00 | 13 | 1014.6 |
| 20260508002402 | 75 | 143 | 2.0 | 5.0 | 0.00 | 0.00 | 0.00 | 13 | 1014.6 |
| 20260508001400 | 75 | 202 | 2.0 | 5.0 | 0.00 | 0.00 | 0.00 | 13 | 1014.6 |
| 20260508000902 | 75 | 152 | 3.0 | 6.0 | 0.00 | 0.00 | 0.00 | 12 | 1014.7 |
| 20260508000359 | 75 | 160 | 2.0 | 6.0 | 0.00 | 0.00 | 0.00 | 12 | 1014.6 |
| 20260507235859 | 75 | 193 | 1.0 | 4.0 | 0.00 | 0.00 | 0.00 | 13 | 1014.6 |
| 20260507235358 | 75 | 226 | 2.0 | 6.0 | 0.00 | 0.00 | 0.00 | 13 | 1014.7 |
| 20260507234857 | 75 | 143 | 2.0 | 6.0 | 0.00 | 0.00 | 0.00 | 12 | 1014.7 |
| 20260507234359 | 76 | 134 | 2.0 | 6.0 | 0.00 | 0.00 | 0.00 | 12 | 1014.8 |
| 20260507233858 | 77 | 136 | 1.0 | 4.0 | 0.00 | 0.00 | 0.00 | 13 | 1014.8 |
| 20260507233854 | 77 | 158 | 0.0 | 4.0 | 0.00 | 0.00 | 0.00 | 12 | 1014.9 |
| 20260507232852 | 77 | 278 | 1.0 | 3.0 | 0.00 | 0.00 | 0.00 | 12 | 1014.9 |
| 20260507232351 | 76 | 297 | 1.0 | 4.0 | 0.00 | 0.00 | 0.00 | 12 | 1014.9 |
| 20260507231850 | 76 | 157 | 2.0 | 6.0 | 0.00 | 0.00 | 0.00 | 12 | 1015.1 |
| 20260507231350 | 76 | 119 | 2.0 | 6.0 | 0.00 | 0.00 | 0.00 | 12 | 1015.1 |
| 20260507230851 | 76 | 96 | 2.0 | 5.0 | 0.00 | 0.00 | 0.00 | 12 | 1015.1 |
| 20260507230348 | 76 | 155 | 1.0 | 6.0 | 0.00 | 0.00 | 0.00 | 12 | 1015.2 |
| 20260507225849 | 76 | 146 | 2.0 | 6.0 | 0.00 | 0.00 | 0.00 | 12 | 1015.2 |
| 20260507225349 | 75 | 205 | 1.0 | 4.0 | 0.00 | 0.00 | 0.00 | 12 | 1015.4 |
| 20260507224848 | 75 | 59 | 1.0 | 3.0 | 0.00 | 0.00 | 0.00 | 13 | 1015.3 |
| 20260507224347 | 76 | 75 | 2.0 | 6.0 | 0.00 | 0.00 | 0.00 | 12 | 1015.5 |
| 20260507223849 | 76 | 169 | 2.0 | 6.0 | 0.00 | 0.00 | 0.00 | 12 | 1015.5 |
| 20260507223349 | 76 | 143 | 1.0 | 5.0 | 0.00 | 0.00 | 0.00 | 12 | 1015.5 |
| 20260507222847 | 77 | 122 | 1.0 | 5.0 | 0.00 | 0.00 | 0.00 | 11 | 1015.5 |
| 20260507222345 | 77 | 148 | 1.0 | 5.0 | 0.00 | 0.00 | 0.00 | 12 | 1015.8 |
| 20260507221847 | 76 | 306 | 1.0 | 5.0 | 0.00 | 0.00 | 0.00 | 13 | 1015.8 |
| 20260507221345 | 76 | 102 | 1.0 | 5.0 | 0.00 | 0.00 | 0.00 | 13 | 1015.9 |
| 20260507220853 | 76 | 141 | 1.0 | 3.0 | 0.00 | 0.00 | 0.00 | 13 | 1016.1 |
| 20260507220847 | 75 | 113 | 1.0 | 4.0 | 0.00 | 0.00 | 0.00 | 14 | 1016.0 |
| 20260507220344 | 75 | 296 | 1.0 | 4.0 | 0.00 | 0.00 | 0.00 | 15 | 1016.0 |
| 20260507220003 | 76 | 234 | 1.0 | 2.0 | 0.00 | 0.00 | 0.00 | 14 | 1016.2 |
| 20260507215508 | 76 | 255 | 1.0 | 2.0 | 0.00 | 0.00 | 0.00 | 14 | 1016.3 |
| 20260507214346 | 75 | 224 | 2.0 | 6.0 | 0.00 | 0.00 | 0.00 | 13 | 1016.5 |
| 20260507213847 | 75 | 167 | 2.0 | 6.0 | 0.00 | 0.00 | 0.00 | 15 | 1016.6 |
| 20260507213345 | 74 | 328 | 1.0 | 4.0 | 0.00 | 0.00 | 0.00 | 15 | 1016.7 |
| 20260507212846 | 74 | 297 | 1.0 | 3.0 | 0.00 | 0.00 | 0.00 | 15 | 1016.8 |
| 20260507212349 | 74 | 87 | 1.0 | 4.0 | 0.00 | 0.00 | 0.00 | 15 | 1017.0 |
| 20260507212343 | 74 | 135 | 1.0 | 4.0 | 0.00 | 0.00 | 0.00 | 15 | 1016.9 |
| 20260507211344 | 74 | 103 | 1.0 | 2.0 | 0.00 | 0.00 | 0.00 | 15 | 1017.3 |
| 20260507210843 | 74 | 288 | 1.0 | 5.0 | 0.00 | 0.00 | 0.00 | 16 | 1017.4 |
| 20260507210345 | 73 | 264 | 2.0 | 5.0 | 0.00 | 0.00 | 0.00 | 17 | 1017.4 |
| 20260507205852 | 73 | 275 | 2.0 | 7.0 | 0.00 | 0.00 | 0.00 | 17 | 1017.7 |
| 20260507205844 | 74 | 203 | 2.0 | 6.0 | 0.00 | 0.00 | 0.00 | 16 | 1017.5 |
| 20260507205345 | 73 | 220 | 2.0 | 7.0 | 0.00 | 0.00 | 0.00 | 17 | 1017.6 |
| 20260507204341 | 74 | 129 | 1.0 | 5.0 | 0.00 | 0.00 | 0.00 | 17 | 1017.9 |
| 20260507203842 | 73 | 131 | 1.0 | 4.0 | 0.00 | 0.00 | 0.00 | 17 | 1018.0 |
| 20260507203341 | 72 | 98 | 1.0 | 4.0 | 0.00 | 0.00 | 0.00 | 18 | 1018.0 |
| 20260507202848 | 72 | 160 | 2.0 | 6.0 | 0.00 | 0.00 | 0.00 | 17 | 1018.2 |
| 20260507202841 | 73 | 347 | 2.0 | 6.0 | 0.00 | 0.00 | 0.00 | 17 | 1018.1 |
| 20260507202502 | 71 | 127 | 1.0 | 4.0 | 0.00 | 0.00 | 0.00 | 19 | 1018.3 |
| 20260507201348 | 72 | 282 | 2.0 | 5.0 | 0.00 | 0.00 | 0.00 | 18 | 1018.4 |
| 20260507201343 | 70 | 148 | 1.0 | 5.0 | 0.00 | 0.00 | 0.00 | 18 | 1018.3 |
| 20260507200341 | 72 | 195 | 2.0 | 6.0 | 0.00 | 0.00 | 0.00 | 18 | 1018.4 |
| 20260507195842 | 73 | 137 | 1.0 | 6.0 | 0.00 | 0.00 | 0.00 | 17 | 1018.6 |
| 20260507195341 | 72 | 212 | 1.0 | 4.0 | 0.00 | 0.00 | 0.00 | 17 | 1018.6 |
| 20260507194841 | 70 | 148 | 1.0 | 3.0 | 0.00 | 0.00 | 0.00 | 19 | 1018.7 |
| 20260507194341 | 68 | 86 | 1.0 | 4.0 | 0.00 | 0.00 | 0.00 | 18 | 1018.8 |
| 20260507193841 | 69 | 312 | 1.0 | 8.0 | 0.00 | 0.00 | 0.00 | 18 | 1018.9 |
| 20260507193346 | 67 | 68 | 2.0 | 6.0 | 0.00 | 0.00 | 0.00 | 19 | 1019.0 |
| 20260507193341 | 69 | 319 | 1.0 | 8.0 | 0.00 | 0.00 | 0.00 | 20 | 1018.9 |
| 20260507192349 | 68 | 92 | 2.0 | 6.0 | 0.00 | 0.00 | 0.00 | 18 | 1019.3 |
| 20260507192344 | 68 | 56 | 3.0 | 6.0 | 0.00 | 0.00 | 0.00 | 19 | 1019.1 |
| 20260507191340 | 69 | 34 | 1.0 | 6.0 | 0.00 | 0.00 | 0.00 | 19 | 1019.5 |
| 20260507190841 | 69 | 153 | 2.0 | 4.0 | 0.00 | 0.00 | 0.00 | 19 | 1019.5 |
| 20260507190341 | 69 | 139 | 2.0 | 4.0 | 0.00 | 0.00 | 0.00 | 19 | 1019.6 |
| 20260507185843 | 69 | 169 | 1.0 | 4.0 | 0.00 | 0.00 | 0.00 | 19 | 1019.7 |
| 20260507185343 | 69 | 229 | 1.0 | 3.0 | 0.00 | 0.00 | 0.00 | 19 | 1019.7 |
| 20260507184843 | 68 | 219 | 1.0 | 3.0 | 0.00 | 0.00 | 0.00 | 21 | 1019.8 |
| 20260507184343 | 66 | 247 | 2.0 | 7.0 | 0.00 | 0.00 | 0.00 | 22 | 1020.0 |
| 20260507183841 | 65 | 290 | 2.0 | 7.0 | 0.00 | 0.00 | 0.00 | 22 | 1020.1 |
| 20260507183347 | 65 | 300 | 1.0 | 6.0 | 0.00 | 0.00 | 0.00 | 25 | 1020.3 |
| 20260507183342 | 65 | 78 | 1.0 | 5.0 | 0.00 | 0.00 | 0.00 | 23 | 1020.2 |
| 20260507182338 | 64 | 39 | 3.0 | 6.0 | 0.00 | 0.00 | 0.00 | 25 | 1020.4 |
| 20260507181839 | 63 | 314 | 2.0 | 5.0 | 0.00 | 0.00 | 0.00 | 25 | 1020.4 |
| 20260507181340 | 64 | 56 | 2.0 | 6.0 | 0.00 | 0.00 | 0.00 | 25 | 1020.5 |
| 20260507180840 | 64 | 260 | 3.0 | 8.0 | 0.00 | 0.00 | 0.00 | 24 | 1020.5 |
| 20260507180340 | 63 | 44 | 3.0 | 8.0 | 0.00 | 0.00 | 0.00 | 26 | 1020.7 |
| 20260507175839 | 63 | 70 | 2.0 | 9.0 | 0.00 | 0.00 | 0.00 | 26 | 1020.8 |
| 20260507175339 | 64 | 342 | 2.0 | 9.0 | 0.00 | 0.00 | 0.00 | 27 | 1020.9 |
| 20260507174844 | 63 | 196 | 2.0 | 5.0 | 0.00 | 0.00 | 0.00 | 29 | 1020.9 |
| 20260507174840 | 64 | 273 | 1.0 | 4.0 | 0.00 | 0.00 | 0.00 | 29 | 1020.9 |
| 20260507173847 | 62 | 37 | 2.0 | 5.0 | 0.00 | 0.00 | 0.00 | 25 | 1021.0 |
| 20260507173841 | 62 | 304 | 2.0 | 5.0 | 0.00 | 0.00 | 0.00 | 29 | 1020.9 |
| 20260507172839 | 62 | 322 | 2.0 | 5.0 | 0.00 | 0.00 | 0.00 | 25 | 1021.1 |
| 20260507172339 | 62 | 80 | 1.0 | 6.0 | 0.00 | 0.00 | 0.00 | 30 | 1021.1 |
| 20260507171839 | 61 | 340 | 2.0 | 6.0 | 0.00 | 0.00 | 0.00 | 31 | 1021.2 |
| 20260507171339 | 61 | 320 | 2.0 | 5.0 | 0.00 | 0.00 | 0.00 | 31 | 1021.4 |
| 20260507170840 | 61 | 312 | 1.0 | 5.0 | 0.00 | 0.00 | 0.00 | 32 | 1021.5 |
| 20260507170346 | 60 | 311 | 1.0 | 5.0 | 0.00 | 0.00 | 0.00 | 34 | 1021.6 |
| 20260507170340 | 60 | 306 | 1.0 | 5.0 | 0.00 | 0.00 | 0.00 | 31 | 1021.6 |
| 20260507165837 | 60 | 335 | 1.0 | 4.0 | 0.00 | 0.00 | 0.00 | 31 | 1021.7 |
| 20260507164838 | 59 | 69 | 2.0 | 5.0 | 0.00 | 0.00 | 0.00 | 36 | 1021.6 |
| 20260507164346 | 59 | 314 | 2.0 | 6.0 | 0.00 | 0.00 | 0.00 | 37 | 1021.7 |
| 20260507164339 | 58 | 321 | 2.0 | 6.0 | 0.00 | 0.00 | 0.00 | 37 | 1021.7 |
| 20260507163339 | 59 | 330 | 1.0 | 4.0 | 0.00 | 0.00 | 0.00 | 38 | 1021.7 |
| 20260507162837 | 58 | 290 | 1.0 | 4.0 | 0.00 | 0.00 | 0.00 | 38 | 1021.8 |
| 20260507162338 | 57 | 13 | 2.0 | 4.0 | 0.00 | 0.00 | 0.00 | 39 | 1021.8 |
| 20260507161842 | 55 | 312 | 2.0 | 6.0 | 0.00 | 0.00 | 0.00 | 42 | 1022.1 |
| 20260507161836 | 56 | 321 | 2.0 | 5.0 | 0.00 | 0.00 | 0.00 | 40 | 1021.9 |
| 20260507160841 | 55 | 304 | 2.0 | 7.0 | 0.00 | 0.00 | 0.00 | 44 | 1022.1 |
| 20260507160834 | 55 | 316 | 2.0 | 7.0 | 0.00 | 0.00 | 0.00 | 42 | 1022.1 |
| 20260507155835 | 55 | 304 | 1.0 | 4.0 | 0.00 | 0.00 | 0.00 | 46 | 1022.1 |
| 20260507155334 | 54 | 345 | 2.0 | 5.0 | 0.00 | 0.00 | 0.00 | 47 | 1022.1 |
| 20260507154837 | 54 | 315 | 2.0 | 5.0 | 0.00 | 0.00 | 0.00 | 47 | 1022.2 |
| 20260507154340 | 53 | 71 | 2.0 | 6.0 | 0.00 | 0.00 | 0.00 | 50 | 1022.3 |
| 20260507154335 | 54 | 341 | 2.0 | 5.0 | 0.00 | 0.00 | 0.00 | 48 | 1022.2 |
| 20260507153334 | 53 | 331 | 2.0 | 6.0 | 0.00 | 0.00 | 0.00 | 50 | 1022.4 |
| 20260507152834 | 53 | 72 | 2.0 | 6.0 | 0.00 | 0.00 | 0.00 | 51 | 1022.4 |
| 20260507152334 | 53 | 90 | 2.0 | 6.0 | 0.00 | 0.00 | 0.00 | 52 | 1022.4 |
| 20260507151833 | 52 | 9 | 2.0 | 6.0 | 0.00 | 0.00 | 0.00 | 52 | 1022.4 |
| 20260507151332 | 52 | 295 | 2.0 | 7.0 | 0.00 | 0.00 | 0.00 | 54 | 1022.4 |
| 20260507150833 | 51 | 310 | 3.0 | 8.0 | 0.00 | 0.00 | 0.00 | 55 | 1022.4 |
| 20260507150827 | 51 | 355 | 2.0 | 8.0 | 0.00 | 0.00 | 0.00 | 56 | 1022.5 |
| 20260507145828 | 50 | 352 | 2.0 | 7.0 | 0.00 | 0.00 | 0.00 | 57 | 1022.6 |
| 20260507145328 | 50 | 324 | 2.0 | 6.0 | 0.00 | 0.00 | 0.00 | 57 | 1022.6 |
| 20260507144833 | 49 | 53 | 2.0 | 7.0 | 0.00 | 0.00 | 0.00 | 58 | 1022.6 |
| 20260507144827 | 49 | 84 | 3.0 | 7.0 | 0.00 | 0.00 | 0.00 | 58 | 1022.6 |
| 20260507143827 | 49 | 65 | 2.0 | 7.0 | 0.00 | 0.00 | 0.00 | 59 | 1022.8 |
| 20260507143325 | 49 | 74 | 2.0 | 7.0 | 0.00 | 0.00 | 0.00 | 61 | 1022.8 |
| 20260507142826 | 48 | 318 | 2.0 | 6.0 | 0.00 | 0.00 | 0.00 | 62 | 1022.9 |
| 20260507142326 | 48 | 22 | 2.0 | 6.0 | 0.00 | 0.00 | 0.00 | 62 | 1022.8 |
| 20260507141825 | 47 | 9 | 3.0 | 6.0 | 0.00 | 0.00 | 0.00 | 63 | 1022.9 |
| 20260507141331 | 46 | 347 | 3.0 | 7.0 | 0.00 | 0.00 | 0.00 | 65 | 1022.8 |
| 20260507141326 | 46 | 331 | 3.0 | 7.0 | 0.00 | 0.00 | 0.00 | 65 | 1022.8 |
| 20260507140325 | 46 | 30 | 2.0 | 6.0 | 0.00 | 0.00 | 0.00 | 66 | 1022.8 |
| 20260507135825 | 46 | 333 | 2.0 | 6.0 | 0.00 | 0.00 | 0.00 | 66 | 1022.9 |
| 20260507135326 | 45 | 330 | 2.0 | 6.0 | 0.00 | 0.00 | 0.00 | 67 | 1022.8 |
| 20260507134833 | 44 | 37 | 3.0 | 10.0 | 0.00 | 0.00 | 0.00 | 68 | 1022.9 |
| 20260507134826 | 45 | 48 | 3.0 | 10.0 | 0.00 | 0.00 | 0.00 | 68 | 1022.9 |
| 20260507133826 | 44 | 48 | 2.0 | 9.0 | 0.00 | 0.00 | 0.00 | 68 | 1022.8 |
| 20260507133336 | 43 | 46 | 2.0 | 7.0 | 0.00 | 0.00 | 0.00 | 70 | 1022.6 |
| 20260507133324 | 44 | 15 | 2.0 | 6.0 | 0.00 | 0.00 | 0.00 | 70 | 1022.8 |
| 20260507132826 | 43 | 70 | 2.0 | 6.0 | 0.00 | 0.00 | 0.00 | 70 | 1022.9 |
| 20260507132327 | 43 | 329 | 2.0 | 7.0 | 0.00 | 0.00 | 0.00 | 71 | 1022.8 |
| 20260507131325 | 43 | 84 | 2.0 | 8.0 | 0.00 | 0.00 | 0.00 | 71 | 1022.6 |
| 20260507130831 | 42 | 327 | 2.0 | 10.0 | 0.00 | 0.00 | 0.00 | 71 | 1022.6 |
| 20260507130826 | 43 | 41 | 2.0 | 10.0 | 0.00 | 0.00 | 0.00 | 71 | 1022.6 |
| 20260507125825 | 42 | 6 | 2.0 | 9.0 | 0.00 | 0.00 | 0.00 | 71 | 1022.5 |
| 20260507125326 | 42 | 51 | 3.0 | 10.0 | 0.00 | 0.00 | 0.00 | 72 | 1022.5 |
| 20260507124824 | 42 | 22 | 3.0 | 10.0 | 0.00 | 0.00 | 0.00 | 72 | 1022.4 |
| 20260507124326 | 42 | 342 | 2.0 | 7.0 | 0.00 | 0.00 | 0.00 | 72 | 1022.4 |
| 20260507123824 | 41 | 312 | 2.0 | 7.0 | 0.00 | 0.00 | 0.00 | 73 | 1022.4 |
| 20260507123324 | 41 | 30 | 2.0 | 7.0 | 0.00 | 0.00 | 0.00 | 74 | 1022.4 |
| 20260507122824 | 40 | 12 | 2.0 | 7.0 | 0.00 | 0.00 | 0.00 | 74 | 1022.3 |
| 20260507122324 | 41 | 2 | 2.0 | 7.0 | 0.00 | 0.00 | 0.00 | 73 | 1022.2 |
| 20260507121825 | 41 | 356 | 2.0 | 7.0 | 0.00 | 0.00 | 0.00 | 73 | 1022.2 |
| 20260507121325 | 41 | 34 | 2.0 | 5.0 | 0.00 | 0.00 | 0.00 | 73 | 1022.2 |
| 20260507120826 | 41 | 342 | 2.0 | 5.0 | 0.00 | 0.00 | 0.00 | 73 | 1022.2 |
| 20260507120324 | 40 | 313 | 1.0 | 6.0 | 0.00 | 0.00 | 0.00 | 73 | 1022.3 |
| 20260507115824 | 40 | 19 | 1.0 | 6.0 | 0.00 | 0.00 | 0.00 | 72 | 1022.3 |
| 20260507115324 | 40 | 333 | 1.0 | 5.0 | 0.00 | 0.00 | 0.00 | 71 | 1022.3 |
| 20260507114824 | 40 | 12 | 1.0 | 4.0 | 0.00 | 0.00 | 0.00 | 71 | 1022.2 |
| 20260507114324 | 41 | 326 | 1.0 | 6.0 | 0.00 | 0.00 | 0.00 | 70 | 1022.2 |
| 20260507113827 | 41 | 72 | 2.0 | 7.0 | 0.00 | 0.00 | 0.00 | 69 | 1022.1 |
| 20260507113823 | 41 | 322 | 2.0 | 7.0 | 0.00 | 0.00 | 0.00 | 69 | 1022.2 |
| 20260507112822 | 41 | 295 | 2.0 | 7.0 | 0.00 | 0.00 | 0.00 | 69 | 1022.1 |
| 20260507112320 | 41 | 11 | 1.0 | 7.0 | 0.00 | 0.00 | 0.00 | 69 | 1022.1 |
| 20260507111822 | 41 | 38 | 1.0 | 5.0 | 0.00 | 0.00 | 0.00 | 68 | 1022.2 |
| 20260507111320 | 41 | 338 | 1.0 | 5.0 | 0.00 | 0.00 | 0.00 | 68 | 1022.2 |
| 20260507110819 | 41 | 319 | 1.0 | 4.0 | 0.00 | 0.00 | 0.00 | 67 | 1022.1 |
| 20260507110318 | 41 | 25 | 1.0 | 4.0 | 0.00 | 0.00 | 0.00 | 66 | 1022.2 |
| 20260507105818 | 42 | 349 | 1.0 | 5.0 | 0.00 | 0.00 | 0.00 | 65 | 1022.3 |
| 20260507105318 | 42 | 348 | 2.0 | 7.0 | 0.00 | 0.00 | 0.00 | 65 | 1022.2 |
| 20260507104819 | 42 | 345 | 2.0 | 7.0 | 0.00 | 0.00 | 0.00 | 65 | 1022.2 |
| 20260507104316 | 42 | 310 | 2.0 | 6.0 | 0.00 | 0.00 | 0.00 | 64 | 1022.2 |
| 20260507103817 | 42 | 24 | 1.0 | 4.0 | 0.00 | 0.00 | 0.00 | 64 | 1022.2 |
| 20260507103316 | 42 | 323 | 1.0 | 4.0 | 0.00 | 0.00 | 0.00 | 64 | 1022.3 |
| 20260507102822 | 42 | 41 | 1.0 | 3.0 | 0.00 | 0.00 | 0.00 | 65 | 1022.2 |
| 20260507102816 | 42 | 84 | 0.0 | 3.0 | 0.00 | 0.00 | 0.00 | 65 | 1022.3 |
| 20260507101817 | 43 | 316 | 0.0 | 3.0 | 0.00 | 0.00 | 0.00 | 65 | 1022.1 |
| 20260507101322 | 43 | 328 | 1.0 | 4.0 | 0.00 | 0.00 | 0.00 | 64 | 1022.1 |
| 20260507101317 | 43 | 339 | 0.0 | 4.0 | 0.00 | 0.00 | 0.00 | 64 | 1022.2 |
| 20260507100319 | 43 | 27 | 1.0 | 4.0 | 0.00 | 0.00 | 0.00 | 63 | 1022.1 |
| 20260507095815 | 43 | 47 | 1.0 | 4.0 | 0.00 | 0.00 | 0.00 | 61 | 1021.9 |
| 20260507095319 | 44 | 346 | 1.0 | 5.0 | 0.00 | 0.00 | 0.00 | 59 | 1021.9 |
| 20260507095314 | 44 | 42 | 1.0 | 5.0 | 0.00 | 0.00 | 0.00 | 59 | 1021.9 |
| 20260507094315 | 44 | 321 | 1.0 | 6.0 | 0.00 | 0.00 | 0.00 | 56 | 1021.9 |
| 20260507093816 | 44 | 328 | 1.0 | 6.0 | 0.00 | 0.00 | 0.00 | 54 | 1021.9 |
| 20260507093315 | 44 | 356 | 1.0 | 4.0 | 0.00 | 0.00 | 0.00 | 48 | 1021.9 |
| 20260507092814 | 44 | 335 | 1.0 | 4.0 | 0.00 | 0.00 | 0.00 | 46 | 1021.9 |
| 20260507092315 | 45 | 347 | 1.0 | 4.0 | 0.00 | 0.00 | 0.00 | 44 | 1021.9 |
| 20260507091814 | 45 | 11 | 2.0 | 4.0 | 0.00 | 0.00 | 0.00 | 43 | 1021.9 |
| 20260507091312 | 45 | 18 | 2.0 | 5.0 | 0.00 | 0.00 | 0.00 | 41 | 1021.9 |
| 20260507090814 | 45 | 300 | 1.0 | 5.0 | 0.00 | 0.00 | 0.00 | 40 | 1021.9 |
| 20260507090315 | 45 | 309 | 1.0 | 5.0 | 0.00 | 0.00 | 0.00 | 39 | 1021.9 |
| 20260507085811 | 46 | 315 | 1.0 | 5.0 | 0.00 | 0.00 | 0.00 | 39 | 1021.8 |
| 20260507085310 | 45 | 301 | 0.0 | 2.0 | 0.00 | 0.00 | 0.00 | 40 | 1021.7 |
| 20260507084810 | 45 | 267 | 0.0 | 1.0 | 0.00 | 0.00 | 0.00 | 40 | 1021.7 |
| 20260507084309 | 45 | 158 | 0.0 | 0.0 | 0.00 | 0.00 | 0.00 | 40 | 1021.6 |
| 20260507083806 | 45 | 158 | 0.0 | 0.0 | 0.00 | 0.00 | 0.00 | 42 | 1021.7 |
| 20260507083308 | 46 | 158 | 0.0 | 1.0 | 0.00 | 0.00 | 0.00 | 40 | 1021.6 |
| 20260507082809 | 45 | 157 | 0.0 | 1.0 | 0.00 | 0.00 | 0.00 | 40 | 1021.6 |
| 20260507082309 | 45 | 155 | 0.0 | 0.0 | 0.00 | 0.00 | 0.00 | 42 | 1021.6 |
| 20260507081808 | 46 | 155 | 0.0 | 1.0 | 0.00 | 0.00 | 0.00 | 42 | 1021.6 |
| 20260507081309 | 45 | 155 | 0.0 | 1.0 | 0.00 | 0.00 | 0.00 | 40 | 1021.4 |
| 20260507080807 | 46 | 77 | 0.0 | 0.0 | 0.00 | 0.00 | 0.00 | 40 | 1021.2 |
| 20260507080306 | 46 | 77 | 0.0 | 0.0 | 0.00 | 0.00 | 0.00 | 41 | 1021.2 |
| 20260507075806 | 47 | 77 | 0.0 | 2.0 | 0.00 | 0.00 | 0.00 | 40 | 1021.4 |
| 20260507075313 | 47 | 78 | 0.0 | 3.0 | 0.00 | 0.00 | 0.00 | 39 | 1021.4 |
| 20260507075307 | 47 | 77 | 0.0 | 3.0 | 0.00 | 0.00 | 0.00 | 38 | 1021.4 |
| 20260507074310 | 47 | 139 | 0.0 | 1.0 | 0.00 | 0.00 | 0.00 | 39 | 1021.4 |
| 20260507074306 | 47 | 76 | 0.0 | 2.0 | 0.00 | 0.00 | 0.00 | 39 | 1021.2 |
| 20260507073925 | 48 | 139 | 0.0 | 3.0 | 0.00 | 0.00 | 0.00 | 37 | 1021.1 |
| 20260507073305 | 47 | 139 | 0.0 | 1.0 | 0.00 | 0.00 | 0.00 | 38 | 1021.2 |
| 20260507072805 | 47 | 139 | 0.0 | 1.0 | 0.00 | 0.00 | 0.00 | 38 | 1021.2 |
| 20260507071806 | 48 | 139 | 0.0 | 3.0 | 0.00 | 0.00 | 0.00 | 36 | 1021.1 |
| 20260507071305 | 49 | 307 | 0.0 | 3.0 | 0.00 | 0.00 | 0.00 | 35 | 1021.1 |
| 20260507070806 | 49 | 307 | 1.0 | 3.0 | 0.00 | 0.00 | 0.00 | 34 | 1021.0 |
| 20260507070311 | 50 | 316 | 2.0 | 6.0 | 0.00 | 0.00 | 0.00 | 34 | 1020.8 |
| 20260507070304 | 50 | 319 | 2.0 | 6.0 | 0.00 | 0.00 | 0.00 | 34 | 1020.9 |
| 20260507065306 | 50 | 306 | 2.0 | 6.0 | 0.00 | 0.00 | 0.00 | 34 | 1020.7 |
| 20260507064809 | 50 | 315 | 0.0 | 3.0 | 0.00 | 0.00 | 0.00 | 37 | 1020.7 |
| 20260507064804 | 50 | 302 | 1.0 | 4.0 | 0.00 | 0.00 | 0.00 | 35 | 1020.8 |
| 20260507063805 | 50 | 308 | 0.0 | 3.0 | 0.00 | 0.00 | 0.00 | 37 | 1020.8 |
| 20260507063306 | 50 | 350 | 0.0 | 1.0 | 0.00 | 0.00 | 0.00 | 38 | 1020.9 |
| 20260507062805 | 50 | 350 | 0.0 | 2.0 | 0.00 | 0.00 | 0.00 | 38 | 1020.9 |
| 20260507062305 | 50 | 314 | 0.0 | 2.0 | 0.00 | 0.00 | 0.00 | 38 | 1020.9 |
| 20260507061802 | 50 | 331 | 0.0 | 2.0 | 0.00 | 0.00 | 0.00 | 38 | 1020.8 |
| 20260507061304 | 50 | 312 | 0.0 | 2.0 | 0.00 | 0.00 | 0.00 | 39 | 1020.8 |
| 20260507060800 | 50 | 248 | 0.0 | 1.0 | 0.00 | 0.00 | 0.00 | 41 | 1020.8 |
| 20260507060300 | 51 | 248 | 0.0 | 1.0 | 0.00 | 0.00 | 0.00 | 40 | 1020.8 |
| 20260507055801 | 51 | 248 | 0.0 | 1.0 | 0.00 | 0.00 | 0.00 | 40 | 1020.7 |
| 20260507055305 | 52 | 297 | 0.0 | 1.0 | 0.00 | 0.00 | 0.00 | 39 | 1020.7 |
| 20260507054801 | 52 | 297 | 0.0 | 4.0 | 0.00 | 0.00 | 0.00 | 38 | 1020.5 |
| 20260507054301 | 52 | 297 | 0.0 | 4.0 | 0.00 | 0.00 | 0.00 | 39 | 1020.5 |
| 20260507053806 | 53 | 327 | 1.0 | 4.0 | 0.00 | 0.00 | 0.00 | 39 | 1020.5 |
| 20260507053801 | 53 | 335 | 0.0 | 3.0 | 0.00 | 0.00 | 0.00 | 40 | 1020.5 |
| 20260507053302 | 53 | 341 | 1.0 | 4.0 | 0.00 | 0.00 | 0.00 | 39 | 1020.5 |
| 20260507052300 | 53 | 324 | 1.0 | 5.0 | 0.00 | 0.00 | 0.00 | 40 | 1020.4 |
| 20260507051800 | 54 | 331 | 1.0 | 5.0 | 0.00 | 0.00 | 0.00 | 40 | 1020.4 |
| 20260507051300 | 53 | 330 | 0.0 | 3.0 | 0.00 | 0.00 | 0.00 | 42 | 1020.3 |
| 20260507050805 | 54 | 328 | 0.0 | 2.0 | 0.00 | 0.00 | 0.00 | 45 | 1020.2 |
| 20260507050759 | 54 | 340 | 0.0 | 1.0 | 0.00 | 0.00 | 0.00 | 44 | 1020.3 |
| 20260507045805 | 55 | 304 | 0.0 | 2.0 | 0.00 | 0.00 | 0.00 | 44 | 1020.1 |
| 20260507045759 | 54 | 314 | 0.0 | 2.0 | 0.00 | 0.00 | 0.00 | 45 | 1020.2 |
| 20260507044759 | 55 | 316 | 0.0 | 2.0 | 0.00 | 0.00 | 0.00 | 44 | 1020.1 |
| 20260507044256 | 55 | 305 | 1.0 | 5.0 | 0.00 | 0.00 | 0.00 | 44 | 1020.0 |
| 20260507043757 | 55 | 300 | 0.0 | 5.0 | 0.00 | 0.00 | 0.00 | 43 | 1020.0 |
| 20260507043252 | 55 | 313 | 0.0 | 2.0 | 0.00 | 0.00 | 0.00 | 44 | 1019.7 |
| 20260507042752 | 55 | 283 | 0.0 | 2.0 | 0.00 | 0.00 | 0.00 | 44 | 1019.8 |
| 20260507042249 | 55 | 329 | 0.0 | 2.0 | 0.00 | 0.00 | 0.00 | 44 | 1019.6 |
| 20260507041747 | 55 | 330 | 0.0 | 2.0 | 0.00 | 0.00 | 0.00 | 45 | 1019.6 |
| 20260507041249 | 55 | 312 | 0.0 | 0.0 | 0.00 | 0.00 | 0.00 | 45 | 1019.5 |
| 20260507040749 | 55 | 312 | 0.0 | 0.0 | 0.00 | 0.00 | 0.00 | 45 | 1019.4 |
| 20260507040254 | 56 | 312 | 0.0 | 0.0 | 0.00 | 0.00 | 0.00 | 43 | 1019.3 |
| 20260507040247 | 56 | 312 | 0.0 | 0.0 | 0.00 | 0.00 | 0.00 | 44 | 1019.4 |
| 20260507035245 | 56 | 312 | 0.0 | 2.0 | 0.00 | 0.00 | 0.00 | 43 | 1019.1 |
| 20260507034754 | 56 | 314 | 0.0 | 1.0 | 0.00 | 0.00 | 0.00 | 43 | 1019.0 |
| 20260507034746 | 56 | 312 | 0.0 | 2.0 | 0.00 | 0.00 | 0.00 | 43 | 1019.0 |
| 20260507033745 | 57 | 323 | 0.0 | 1.0 | 0.00 | 0.00 | 0.00 | 42 | 1018.9 |